OPS 4682 DEB, 38383

Orbit data source: Space-Track

OPS 4682 DEB, 38383 is space debris in LEO originally from a launch on Sat, 03 Apr 1965 UTC launched from the Air Force Western Test Range (AFWTR). Debris objects in space refer to the collection of defunct objects orbiting the Earth. Examples of debris include non-operational satellites, rocket bodies, and fragments generated from explosions, collisions, or faulty payload assembly.

Loading next visibility...
Identifier
38383, 1965-027CL
Orbit
LEO
Country
Flag of USUS
Related business
Manufacturer
Unknown
Mission
Spacecraft
Bus & Motor
Unknown
Mass
Unknown
Launch date (UTC)
1965-04-03 (61 years ago)
Launch vehicle
Unknown
Launch site
Air Force Western Test Range (AFWTR)
Object type
Payload
Rocket body
Debris
Shape & HBR
Unknown shape, 0.1 m
Radar Cross Section
Small (<0.1 m²)

Expand to show TLE details & history
Last TLE update: 2 days ago

TLE from 2 days ago
0 OPS 4682 DEB
1 38383U 65027CL  25292.17570288  .00000472  00000-0  16107-2 0  9993
2 38383  90.2488   6.5061 0027236  32.5081 327.7710 12.96895645552368
Epoch: 2025-10-19T04:13Z
TLE epoch observation values (Epoch: 2025-10-19T04:13:00.728Z)
Latitude
-0.00003°
Longitude
-84.64307°
Altitude
1,259.535 km
Speed
7.234 km/s
True Right ascension
00h 26m 01s
True Declination
0° 00' 00"
Sunlit
Object was in full shadow at epoch
Visualization orbit readout
Latitude
Unknown
Longitude
Unknown
Altitude
Unknown
Speed
Unknown
Apparent Right ascension
Unknown
Apparent Declination
Unknown
Sunlit
N/A
Visualization observer readout
Local Sidereal Time
11:38:22
Azimuth
Unknown
Elevation
Unknown
Doppler factor
Unknown
Orbital elements
Apogee altitude
1,292.24 km
Perigee altitude
1,250.571 km
Semi-major axis
7,649.543 km
Eccentricity
0.00272
Inclination
90.2488°
RAAN
6.5061°
Arg. of periapsis
32.5081°
True anomaly
327.60407°
Mean anomaly
327.771°
Eccentric anomaly
327.68759°
Mean motion
3.24407 °/min
Orbital period
110.97 mins
BSTAR
0.0016107
Loading maneuver chart data...
Computing Atmospheric mass density...
Loading historical data...
Loading historical data...
Loading historical data...
Loading historical data...
Loading historical data...
Loading historical data...
Loading historical data...

Documentation

Showing up to 5 results
|